Погода в Сажино

Россия / Курганская область     55°05′56″N   63°21′06″E
В апреле 2022 года жителям России запретили посещать сайт meteo.paraplan.net по решению Генеральной прокуратуры. Аудитория сайта уменьшилась в 10 раз. Владельцы сайта не видят смысла в поддержке погодного сервера в таких условиях. Сайт будет закрыт в октябре.
темп.,
°C
ветер,
м/с
пор.,
м/с
влажн.,
%
обл.,
%
осадки,
мм/ч
давл.,
гПа
погр.,
м
25 сентября, вс
вс2523:00+19юз344892 0.1 101046
02:00+17зюз22626 0.4 100913
05:00+15зсз236098 0.7 101023
08:00+15св3564100 0.0 1010130
11:00+18всв6754100 0.0 1010600
14:00+20всв6746100 0.1 10101064
17:00+17всв71060100 0.1 1011770
20:00+13всв81472100 0.0 1010550
26 сентября, пн
пн2623:00+10в91683100 0.2 1009489
02:00+9в91688100 0.9 1008545
05:00+7в91692100 4.1 1006531
08:00+6в91693100 4.5 1004598
11:00+6в91493100 16.6 1004667
14:00+5св61093100 6.7 1006685
17:00+2ссв4899100 8.6 1009352
20:00+2ссв5999100 1.6 1011366
27 сентября, вт
вт2723:00+1с5999100 2.2 1013422
02:00+1с5997100 0.4 1014503
05:00+1ссз488999 0.5 1015407
08:00−1с4784100 0.0 1017290
11:00+2ссв4574100 0.0 1018540
14:00+4ссв4466100 0.0 1019971
17:00+4ссв3366100 0.0 1020897
20:00+3всв236881 0.0 1020127
28 сентября, ср
ср2823:00+1в237855 0.0 102140
02:000в2383100 0.0 102155
05:000в3484100 0.0 1021132
08:00+1в3479100 0.0 1022227
11:00+3в346665 0.0 1022761
14:00+5в3358100 0.0 10221145
17:00+5всв3462100 0.1 1022990
20:00+3всв4673100 0.0 1023488
29 сентября, чт
чт2923:00+2всв3681100 0.0 1023351
02:000всв358883 0.0 1024135
05:00−2всв36915 0.0 1024135
08:00−1всв47795 0.0 1025261
11:00+4всв56515 0.0 10251087
14:00+6всв554596 0.0 10241563
17:00+5всв555095 0.0 10251344
20:00+1св49745 0.0 1027250